#timestamp,LO_Frequency,Hit 
1499198415.7,286047038.8,N
1499198435.5,286047041.2,N
1499198455.3,286047040.2,N
1499198475.2,286047039.7,N
1499198495.9,286047042.4,N
1499198515.7,286047042.3,N
1499198535.6,286047041.7,N
1499198555.4,286047042.2,N
1499198575.2,286047042.3,N
1499198595.0,286047041.7,N
1499198596.0,286047041.7,N
1499198615.8,286047041.8,N
1499198635.6,286047040.1,N
1499198655.4,286047041.5,N
1499198675.3,286047041.4,N
1499198695.1,286047041.5,N
1499198715.8,286047039.8,N
1499198735.7,286047040.3,N
1499198755.5,286047040.3,N
1499198775.3,286047040.0,N
1499198795.2,286047039.9,N
1499198815.9,286047043.9,N
1499198835.7,286047043.8,N
1499198855.6,286047042.1,N
1499198875.4,286047041.8,N
1499198895.2,286047039.7,N
1499198915.0,286047041.7,N
1499198916.0,286047041.7,N
1499198935.8,286047041.6,N
1499198955.6,286047042.4,N
1499198975.4,286047041.5,N
1499198995.3,286047043.2,N
1499199015.1,286047044.4,N
1499199035.8,286047043.2,N
1499199055.7,286047045.1,N
1499199075.5,286047046.8,N
1499199095.3,286047046.1,N
1499199115.2,286047046.0,N
1499199135.9,286047044.6,N
1499199155.7,286047047.5,N
1499199175.6,286047044.8,N
1499199195.4,286047047.5,N
1499199215.2,286047044.9,N
1499199235.1,286047046.3,N
1499199236.0,286047046.3,N
1499199255.8,286047044.6,N
1499199275.6,286047047.6,N
1499199295.5,286047046.6,N
1499199315.3,286047044.9,N
1499199335.1,286047047.2,N
1499199355.9,286047047.4,N
1499199375.7,286047046.9,N
1499199395.5,286047044.8,N
1499199415.3,286047046.9,N
1499199435.2,286047046.5,N
1499199455.0,286047046.6,N
1499199455.9,286047046.6,N
1499199475.7,286047048.6,N
1499199495.6,286047050.8,N
1499199515.4,286047050.6,N
1499199535.2,286047048.9,N
1499199555.1,286047046.3,N
1499199556.0,286047046.3,N
1499199575.8,286047049.9,N
1499199595.6,286047052.1,N
1499199615.5,286047052.4,N
1499199635.3,286047050.1,N
1499199655.1,286047051.7,N
1499199675.9,286047051.7,N
1499199695.7,286047053.6,N
1499199715.5,286047054.0,N
1499199735.4,286047050.3,N
1499199755.2,286047049.6,N
1499199775.0,286047052.4,N
1499199775.9,286047052.4,N
1499199795.8,286047050.9,N
1499199815.6,286047051.8,N
1499199835.4,286047049.4,N
1499199855.2,286047049.5,N
1499199875.1,286047051.5,N
1499199876.0,286047051.5,N
1499199895.8,286047051.9,N
1499199915.6,286047049.8,N
1499199935.5,286047051.7,N
1499199955.3,286047051.8,N
1499199975.1,286047051.5,N
1499199995.9,286047052.2,N
1499200015.7,286047051.0,N
1499200035.5,286047053.9,N
1499200055.4,286047053.8,N
1499200075.2,286047052.2,N
1499200095.0,286047051.1,N
1499200095.9,286047051.1,N
1499200115.8,286047053.0,N
1499200135.6,286047053.5,N
1499200155.4,286047053.2,N
1499200175.3,286047055.5,N
1499200195.1,286047055.1,N
1499200196.0,286047055.1,N
1499200215.8,286047054.8,N
1499200235.7,286047053.1,N
1499200255.5,286047055.3,N
1499200275.3,286047055.3,N
1499200295.2,286047055.5,N
1499200315.9,286047056.9,N
1499200335.7,286047054.3,N
1499200355.6,286047054.6,N
1499200375.4,286047056.0,N
1499200395.2,286047055.8,N
1499200415.0,286047056.3,N
1499200416.0,286047056.3,N
1499200435.8,286047058.8,N
1499200455.6,286047057.0,N
1499200475.4,286047055.0,N
1499200495.3,286047057.0,N
1499200515.1,286047054.8,N
1499200535.8,286047054.7,N
1499200555.7,286047056.2,N
1499200575.5,286047057.3,N
1499200595.3,286047057.6,N
1499200615.2,286047059.8,N
1499200635.9,286047057.6,N
1499200655.7,286047057.8,N
1499200675.6,286047060.4,N
1499200695.4,286047056.4,N
1499200715.2,286047056.5,N
1499200735.1,286047058.4,N
1499200736.0,286047058.4,N
1499200755.8,286047057.8,N
1499200775.6,286047059.0,N
1499200795.4,286047061.3,N
1499200815.3,286047059.3,N
1499200835.1,286047063.6,N
1499200855.8,286047061.1,N
1499200875.7,286047061.8,N
1499200895.5,286047059.8,N
1499200915.3,286047061.9,N
1499200935.2,286047062.0,N
1499200955.9,286047059.4,N
1499200975.7,286047059.2,N
1499200995.6,286047062.7,N
1499201015.4,286047063.5,N
1499201035.2,286047060.6,N
1499201055.1,286047061.5,N
1499201056.0,286047061.5,N
1499201075.8,286047059.0,N
1499201095.6,286047061.6,N
1499201115.5,286047061.9,N
1499201135.3,286047061.4,N
1499201155.1,286047059.3,N
1499201175.8,286047063.5,N
1499201195.7,286047060.5,N
1499201215.5,286047061.1,N
1499201235.3,286047062.7,N
1499201255.2,286047064.4,N
1499201275.0,286047063.9,N
1499201275.9,286047063.9,N
1499201295.7,286047064.3,N
1499201315.6,286047066.7,N
1499201335.4,286047068.0,N
1499201355.2,286047068.4,N
1499201375.1,286047066.0,N
1499201376.0,286047066.0,N
1499201395.8,286047066.2,N
1499201415.6,286047068.2,N
1499201435.5,286047067.8,N
1499201455.3,286047069.7,N
1499201475.1,286047069.1,N
1499201495.9,286047067.4,N
1499201515.7,286047067.2,N
1499201535.5,286047065.4,N
1499201555.4,286047067.5,N
1499201575.2,286047068.2,N
1499201595.0,286047067.0,N
1499201595.9,286047067.0,N
1499201615.7,286047069.5,N
1499201635.6,286047067.1,N
1499201655.4,286047067.7,N
1499201675.2,286047066.9,N
1499201695.1,286047067.5,N
1499201696.0,286047067.5,N
1499201715.8,286047066.1,N
1499201735.6,286047067.1,N
1499201755.5,286047069.8,N
1499201775.3,286047069.8,N
1499201795.1,286047069.8,N
1499201815.9,286047071.3,N
1499201835.7,286047070.6,N
1499201855.5,286047070.1,N
1499201875.4,286047070.8,N
1499201895.2,286047072.9,N
1499201915.0,286047072.7,N
1499201915.9,286047072.7,N
1499201935.8,286047070.7,N
1499201955.6,286047070.9,N
1499201975.4,286047071.5,N
1499201995.2,286047070.6,N
